This demonstration page uses our WeatherBlox Daily Observations layout. Learn more.

Left ArrowRight Arrow

Hourly Observations for September 15, 2020

Temp ( °F °C ) Dew Point ( °F °C ) Humidity (%) Winds ( mph kmh ) Pressure ( in mb ) Visibility ( mi km ) Precip ( " mm )
12:59 am 00:59 Mostly Cloudy 72 22.2 54 12.2 53 53 NE 14 22 30.21 1023 10 16 0.00 0.00
1:59 am 01:59 Mostly Cloudy 71 21.7 54 12.2 55 55 NNE 16 26 30.20 1023 10 16 0.00 0.00
2:59 am 02:59 Mostly Cloudy 70 21.1 53 11.7 55 55 NE 15 24 30.20 1023 10 16 0.00 0.00
3:59 am 03:59 Mostly Cloudy 70 21.1 53 11.7 55 55 NE 20 31 30.20 1023 10 16 0.00 0.00
4:59 am 04:59 Mostly Cloudy 68 20 51 10.6 55 55 NE 18 30 30.22 1023 10 16 0.00 0.00
5:59 am 05:59 Mostly Cloudy 67 19.4 50 10 55 55 NNE 15 24 30.24 1024 10 16 0.00 0.00
6:59 am 06:59 Mostly Cloudy 67 19.4 51 10.6 57 57 NNE 13 20 30.26 1025 10 16 0.00 0.00
7:59 am 07:59 Partly Cloudy 67 19.4 55 12.8 66 66 NNE 13 20 30.27 1025 10 16 0.00 0.00
8:59 am 08:59 Mostly Cloudy 68 20 57 13.9 68 68 N 15 24 30.28 1025 10 16 0.00 0.00
9:59 am 09:59 Cloudy 69 20.6 58 14.4 68 68 NNE 13 20 30.29 1026 10 16 0.00 0.00
10:59 am 10:59 Mostly Cloudy 70 21.1 59 15 68 68 NNE 14 22 30.29 1026 10 16 0.00 0.00
11:59 am 11:59 Mostly Cloudy 69 20.6 59 15 70 70 N 14 22 30.29 1026 10 16 0.00 0.00
12:59 pm 12:59 Mostly Cloudy 70 21.1 59 15 68 68 N 14 22 30.28 1026 10 16 0.00 0.00
1:59 pm 13:59 Mostly Cloudy 70 21.1 59 15 68 68 N 13 20 30.27 1025 10 16 0.00 0.00
2:59 pm 14:59 Mostly Cloudy 72 22.2 60 15.6 66 66 N 10 17 30.26 1025 10 16 0.00 0.00
3:59 pm 15:59 Mostly Cloudy 71 21.7 60 15.6 68 68 N 12 19 30.25 1024 10 16 0.00 0.00
4:59 pm 16:59 Mostly Cloudy 71 21.7 60 15.6 68 68 N 13 20 30.24 1024 10 16 0.00 0.00
5:06 pm 17:06 Cloudy 71 21.7 60 15.6 68 68 N 12 19 30.25 1024 10 16 0.00 0.00
5:59 pm 17:59 Cloudy 70 21.1 59 15 68 68 NNE 9 15 30.24 1024 10 16 0.00 0.00
6:59 pm 18:59 Cloudy 70 21.1 55 12.8 59 59 ENE 9 15 30.24 1024 10 16 0.00 0.00
7:59 pm 19:59 Mostly Cloudy 69 20.6 55 12.8 61 61 ENE 7 11 30.26 1025 10 16 0.00 0.00
8:59 pm 20:59 Mostly Cloudy 69 20.6 55 12.8 61 61 ENE 6 9 30.27 1025 10 16 0.00 0.00
9:59 pm 21:59 Mostly Cloudy 69 20.6 55 12.8 61 61 E 10 17 30.27 1025 10 16 0.00 0.00
10:59 pm 22:59 Mostly Cloudy 68 20 55 12.8 63 63 E 9 15 30.27 1025 10 16 0.00 0.00
11:59 pm 23:59 Mostly Cloudy 68 20 55 12.8 63 63 ENE 8 13 30.26 1025 10 16 0.00 0.00

Powered by AerisWeather